GW0643 Weather Reports


time (UTC)temp
C
wind
direction
speed
KPH
gust
KPH
rain 1hr
cm
rain 24hr
cm
rain mn
cm
humidity
%
barometer
mb
20260507203805 25 284 3.2 4.8 0.00 6.27 6.43 78 1013.5
20260507183306 21 19 3.2 8.0 0.15 8.69 6.43 93 1014.9
20260507182805 21 39 4.8 9.7 0.15 8.69 6.43 93 1014.8
20260507181806 21 74 1.6 12.9 0.15 8.69 6.43 95 1014.4
20260507181306 21 5 1.6 12.9 0.15 8.71 6.43 93 1014.9
20260507180806 21 5 3.2 12.9 0.15 8.71 6.43 93 1014.9
20260507180306 21 355 8.0 12.9 0.18 8.71 6.43 93 1014.9
20260507175806 21 355 4.8 8.0 0.36 8.71 6.43 93 1014.9
20260507175307 21 344 3.2 8.0 0.36 8.71 6.43 93 1014.9
20260507174805 21 300 1.6 4.8 0.38 8.71 6.43 93 1014.9
20260507174306 21 5 1.6 4.8 0.74 8.71 6.43 93 1014.9
20260507173805 21 5 1.6 4.8 0.61 8.56 6.27 93 1014.9
20260507173306 21 30 1.6 3.2 0.66 8.56 6.27 93 1014.9
20260507172806 21 0 0.0 3.2 0.69 8.56 6.27 96 1015.2
20260507172307 21 0 0.0 3.2 0.69 8.56 6.27 96 1015.2
20260507171805 21 0 0.0 3.2 0.71 8.56 6.27 96 1015.2
20260507171305 21 152 1.6 4.8 0.74 8.56 6.27 96 1015.2
20260507170805 21 180 1.6 4.8 0.74 8.56 6.27 96 1015.0
20260507165806 21 0 0.0 4.8 1.55 8.36 6.07 96 1014.9
20260507165306 21 0 0.0 4.8 1.75 8.36 6.07 96 1014.9
20260507164805 21 0 1.6 4.8 4.14 8.33 6.05 96 1014.9
20260507164306 21 279 4.8 4.8 3.78 7.98 5.69 96 1014.9
20260507163806 21 309 1.6 4.8 1.80 7.95 5.66 96 1014.9
20260507163305 21 0 0.0 4.8 1.75 7.90 5.61 96 1014.9
20260507162805 22 0 0.0 3.2 1.73 7.87 5.59 96 1015.2
20260507162307 22 0 0.0 3.2 1.73 7.87 5.59 96 1015.2
20260507161805 22 189 3.2 4.8 1.70 7.87 5.56 96 1015.2
20260507161305 22 0 0.0 8.0 3.66 7.85 5.54 96 1015.2
20260507160805 22 204 1.6 9.7 3.68 7.85 5.54 96 1014.9
20260507155805 22 223 4.8 9.7 3.66 6.83 4.52 96 1014.9
20260507155307 22 190 8.0 4.8 4.06 6.63 4.32 96 1014.9
20260507152306 21 178 3.2 3.2 3.81 4.14 3.86 96 1014.6
20260507151804 21 178 1.6 3.2 3.81 4.14 3.86 96 1014.6
20260507150804 21 110 3.2 8.0 3.81 4.14 3.86 96 1014.2
20260507150304 21 110 1.6 11.3 3.81 4.14 3.86 96 1014.2
20260507145306 21 0 0.0 19.3 1.83 2.13 1.85 96 1013.9
20260507144804 21 0 0.0 19.3 1.57 1.85 1.57 93 1014.2
20260507144304 21 294 4.8 19.3 0.86 1.14 0.86 93 1014.2
20260507143304 21 287 3.2 9.7 0.25 0.53 0.25 93 1014.3
20260507142804 22 219 3.2 16.1 0.05 0.33 0.05 89 1013.7
20260507142306 22 216 3.2 19.3 0.05 0.33 0.05 89 1013.7
20260507141804 22 205 3.2 19.3 0.05 0.33 0.05 91 1013.3
20260507141304 22 190 3.2 19.3 0.05 0.33 0.05 87 1013.5
20260507140805 22 229 4.8 19.3 0.05 0.33 0.05 96 1014.5
20260507140304 22 223 4.8 19.3 0.05 0.33 0.05 96 1014.4
20260507135804 22 236 1.6 16.1 0.03 0.30 0.03 96 1013.2
20260507135306 22 202 14.5 16.1 0.03 0.30 0.03 96 1013.2
20260507134805 24 227 8.0 16.1 0.00 0.28 0.00 93 1013.2
20260507134305 24 218 3.2 20.9 0.00 0.28 0.00 93 1013.2
20260507133804 25 214 11.3 20.9 0.00 0.28 0.00 87 1012.9
20260507133304 25 193 8.0 20.9 0.00 0.28 0.00 87 1012.9
20260507132804 25 220 3.2 19.3 0.00 0.28 0.00 87 1012.9
20260507132307 25 221 4.8 19.3 0.00 0.28 0.00 87 1012.9
20260507131805 25 215 1.6 19.3 0.00 0.28 0.00 87 1012.9